STARLINK-11304 [DTC]

Last updated on Tue Oct 08 2024 00:02:04 GMT+0000 (Coordinated Universal Time)

1 61209U 24171K 24281.58334491 -.00898312 00000+0 -58139-2 0 9997 2 61209 53.1612 211.3539 0000920 121.5696 127.0400 15.77772480 3929
UTC large
Height (km)
Speed (km/s)
/
Latitude / Longitude
Inclination (degrees)
Orbital Period (minutes)
Azimuth
Elevation
Range (km)
Doppler Factor

Next 0 passes for location: London (51.5072 / 0.1276)

Sorry there are no passes over London.